Flag for U.S.A. Weather past 2 weeks in Cape Coral, Florida, U.S.A.

Now
92 °F

Scattered clouds.


Feels Like: 98 °F
Forecast: 76 / 92 °F
Wind: 13 mph from West

Location: Page Field

Current Time: Jul 1, 2015 at 3:40:07 PM

Latest Report: Jul 1, 2015 at 2:53 PM


Visibility: 10 mi

Pressure: 30.08 "Hg

Humidity: 49%

Dew point: 70 °F

Location of Cape CoralLocation

Historic Weather in Cape Coral — Graph

°F

Cape Coral temperature yesterday

Maximum temperature yesterday: 94 °F (at 3:53 PM)
Minimum temperature yesterday: 74 °F (at 5:53 AM)
Average temperature yesterday: 84 °F

Past Weeks' High & Low Weather Summary

 TemperatureHumidityPressure
High97 °F (Jun 18, 10:53 AM)100% (Jun 25, 3:53 AM)30.16 "Hg (Jun 25, 3:53 AM)
Low73 °F (Jun 26, 2:53 AM)40% (Jul 1, 1:53 PM)30.01 "Hg (Jun 17, 5:53 PM)
Average83 °F76%30.09 "Hg
* Reported Jun 16 1:53 PM — Jul 1 1:53 PM, Cape Coral, Weather by CustomWeather, © 2015

Note: Actual official high and low records may vary slightly from our data, if they occured in-between our weather recording intervals... More about our weather records

Advertising

Cape Coral weather history for previous 24 hours

 ConditionsComfort  
Time TempWeatherWind HumidityBarometerVisibility
1:53 PM
Wed, Jul 1
94 °FSunny.6 mph40%30.12 "Hg10 mi
12:53 PM92 °FScattered clouds.3 mph51%30.14 "Hg10 mi
11:53 AM90 °FSunny.7 mph50%30.14 "Hg10 mi
10:53 AM88 °FSunny.5 mph61%30.15 "Hg10 mi
9:53 AM84 °FSunny.5 mph63%30.16 "Hg10 mi
8:53 AM80 °FSunny.6 mph67%30.16 "Hg10 mi
7:53 AM78 °FSunny.3 mph79%30.16 "Hg10 mi
6:53 AM77 °FClear.6 mph85%30.14 "Hg10 mi
5:53 AM78 °FClear.No wind82%30.11 "Hg10 mi
4:53 AM78 °FClear.No wind82%30.10 "Hg10 mi
3:53 AM78 °FClear.7 mph79%30.10 "Hg10 mi
2:53 AM78 °FClear.7 mph82%30.11 "Hg10 mi
1:53 AM79 °FClear.8 mph72%30.13 "Hg10 mi
11:53 PM
Tue, Jun 30
83 °FClear.5 mph70%30.15 "Hg10 mi
10:53 PM83 °FPassing clouds.No wind74%30.15 "Hg10 mi
9:53 PM85 °FClear.No wind68%30.11 "Hg10 mi
8:53 PM86 °FSunny.8 mph63%30.09 "Hg10 mi
7:53 PM88 °FSunny.8 mph57%30.09 "Hg10 mi
6:53 PM89 °FSunny.10 mph57%30.07 "Hg10 mi
5:53 PM90 °FSunny.9 mph59%30.07 "Hg10 mi
4:53 PM92 °FSunny.10 mph54%30.06 "Hg10 mi
3:53 PM94 °FSunny.6 mph49%30.06 "Hg10 mi
Weather by CustomWeather, © 2015

See weather overviewHow to use our weather pages